If you wish to contribute or participate in the discussions about articles you are invited to join SKYbrary as a registered user

 Actions

Clermont-Ferrand Auvergne Airport

From SKYbrary Wiki

LFLC
Airport
ICAO: LFLC – IATA: CFE
Summary
Name Clermont-Ferrand Auvergne Airport
Region Europe
Territory France FR.gif
Location Aulnat, Auvergne
Serving Clermont-Ferrand
Elevation 332.232 m
1,090 ft
1,090 ft332.232 m
Type medium airport
Coordinates 45° 47' 11.98" N, 3° 10' 9.01" E
Runways
Designator Length Width Surface ROPS
8/26 3015 m9,891.732 ft
45 m147.638 ft
ASP yes/yes
08L/26R 0 m0 ft
0 m0 ft
UNK /


METAR
Observation LFLC 240200Z AUTO 18011KT 9999 SCT052/// BKN064/// BKN074/// ///TCU 13/10 Q1009 TEMPO 4000 SHRA BECMG NSC
Station Clermont-Ferrand
Date/Time 24 October 2019 02:00:00
Wind direction 180°
Wind speed 11 kts
Lowest cloud amount scattered clouds
Temperature 13°C
Dew point 10°C
Humidity 82%
QNH 1009 hPa
Weather condition n/a

Clermont-Ferrand Auvergne Airport is an airport serving the French city of Clermont-Ferrand. It is located 6.7 km3.618 nm
6,700 m
21,981.627 ft
east of the city, in Aulnat.

Climatology

Temperate Oceanic climate (Köppen climate classification Cfb).

Maps

Terrain

Loading map...

Airport Layout

Loading map...


Accidents & Serious Incidents at or in vicinity of LFLC

None on SKYbrary